Regional Weather Roundup
Issued by NWS Cleveland, OH

Home | Current Version | Previous Version | Text Only | Print | Product List | Glossary On
Versions: 1 2 3 4 5 6 7 8 9 10 11 12 13 14 15 16 17 18 19 20 21 22 23 24 25 26 27 28 29 30 31 32 33 34 35 36 37 38 39 40 41 42 43 44 45 46 47 48 49 50
000
ASUS41 KCLE 161410
RWRCLE
OHIO REGIONAL WEATHER ROUNDUP
NATIONAL WEATHER SERVICE WILMINGTON, OH
1000 AM EDT TUE SEP 16 2014

NOTE: "FAIR" INDICATES FEW OR NO CLOUDS BELOW 12,000 FEET WITH NO
SIGNIFICANT WEATHER AND/OR OBSTRUCTIONS TO VISIBILITY.

OHZ001>008-015>018-024>027-034-035-043-044-161500-
   NORTHWEST OHIO

CITY           SKY/WX    TMP DP  RH WIND       PRES   REMARKS
DEFIANCE       PTSUNNY   55  50  83 NW5       30.20R
FINDLAY        PTSUNNY   55  50  83 N7        30.18R
TOLEDO EXPRESS MOSUNNY   55  50  83 N6        30.18R
TOLEDO METCALF MOSUNNY   57  49  74 N6        30.18S
LIMA           CLOUDY    56  51  84 N5        30.18S
$$

OHZ009>014-019>023-028>033-038-089-161500-
   NORTHEAST OHIO

CITY           SKY/WX    TMP DP  RH WIND       PRES   REMARKS
CLE-HOPKINS    CLOUDY    58  54  86 N5        30.16R
CLE-LAKEFRONT  CLOUDY    60  51  72 N9        30.13R
CUY CO. ARPT   CLOUDY    59  55  88 NE5       30.14R
LORAIN-ELYRIA  CLOUDY    62  54  74 N6        30.15R
ASHTABULA      CLOUDY    58  53  84 VRB3      30.14R
AKRON-CANTON   CLOUDY    56  52  86 CALM      30.14R FOG
WOOSTER        CLOUDY    58  53  84 NW6       30.16R HAZE
MANSFIELD      CLOUDY    55  54  96 NW6       30.17R
YOUNGSTOWN     PTSUNNY   54  53  97 W5        30.13R
$$

OHZ042-051>053-060>062-070>072-077>081-161500-
  SOUTHWEST OHIO

CITY           SKY/WX    TMP DP  RH WIND       PRES   REMARKS
CINC-COVINGTON CLOUDY    57  53  86 N9        30.17R
CINC-LUNKEN    CLOUDY    58  53  84 N6        30.18R
HAMILTON       CLOUDY    56  52  86 N7        30.19S
DAYTON         CLOUDY    56  51  84 NE3       30.19S
WRIGHT-PAT AFB CLOUDY    55  51  85 NE6       30.18S
DAYTON GENERAL CLOUDY    55  51  86 N10       30.18R
WILMINGTON     CLOUDY    55  50  83 N10       30.17R
$$

OHZ036-037-039>041-045>050-054>059-063>069-073>076-082>088-161500-
  CENTRAL AND SOUTHEAST OHIO

CITY           SKY/WX    TMP DP  RH WIND       PRES   REMARKS
COLUMBUS       CLOUDY    57  49  74 N7        30.17R
OSU AIRPORT    CLOUDY    55  50  83 N6        30.18R
BOLTON FIELD   CLOUDY    54  52  94 N6        30.18R
RICKENBACK AFB CLOUDY    55  50  85 N8        30.17R
NEWARK         CLOUDY    54  50  86 N5        30.17R
MARION         CLOUDY    56  51  84 N6        30.17S
LANCASTER      CLOUDY    55  50  83 N7        30.18R
ZANESVILLE     PTSUNNY   59  51  75 N8        30.16R
NEW PHILLY     CLOUDY    56  53  90 N3        30.16R
$$



USA.gov is the U.S. government's official web portal to all federal, state and local government web resources and services.